Saranac Lake, NY

5:50 AM EDT on May 24, 2017 (GMT -0400)
Adirondack Regional

Weather History for KSLK - January, 2014

Change the Weather History Date:

Saturday, January 18, 2014

  Actual Average Record
Temperature  
Mean Temperature 21 °F 13 °F  
Max Temperature 35 °F 25 °F 48 °F (1990)
Min Temperature 7 °F 1 °F -32 °F (2003)
Degree Days  
Heating Degree Days 44 52  
Month to date heating degree days 873 927  
Since 1 July heating degree days 4711 4626  
Cooling Degree Days 0 0  
Month to date cooling degree days 0  
Year to date cooling degree days 0  
Moisture  
Dew Point 19 °F    
Average Humidity 72    
Maximum Humidity 100    
Minimum Humidity 43    
Precipitation  
Precipitation 0.03 in 0.07 in 1.01 in (2006)
Month to date precipitation 1.52 1.21  
Year to date precipitation 1.52 1.21  
Sea Level Pressure  
Sea Level Pressure 29.72 in    
Wind  
Wind Speed 3 mph (WSW)    
Max Wind Speed 9 mph    
Max Gust Speed 17 mph    
Visibility 6 miles    
Events Snow    
T = Trace of Precipitation, MM = Missing Value Source: NWS Daily Summary

Daily Weather History Graph

Daily Weather History Graph

Search for Another Location

Airport or City:

Trip Planner

Search our weather history database for the weather conditions in past years. The results will help you decide how hot, cold, wet, or windy it might be!

Date:

Astronomy

Jan. 18, 2014 Rise Set
Actual Time 7:27 AM EST 4:47 PM EST
Civil Twilight 6:55 AM EST 5:19 PM EST
Nautical Twilight 6:19 AM EST 5:55 PM EST
Astronomical Twilight 5:45 AM EST 6:29 PM EST
Moon 7:34 PM EST (1/18) 8:19 AM EST (1/18)
Length of Visible Light 10h 23m
Length of Day
9h 19m
Waning Gibbous, 94% of the Moon is Illuminated
Jan 18
Waning Gibbous
Jan 24
Last Quarter
Jan 30
New
Feb 6
First Quarter
Feb 14
Full

Hourly Weather History & Observations

Time (EST) Temp. Windchill Dew Point Humidity Pressure Visibility Wind Dir Wind Speed Gust Speed Precip Events Conditions
12:12 AM 19.0 °F - 17.1 °F 92% 29.78 in 1.5 mi Calm Calm - N/A   Partly Cloudy
12:23 AM 19.0 °F - 18.0 °F 96% 29.78 in 3.0 mi Calm Calm - N/A   Clear
12:51 AM 15.1 °F - 14.0 °F 95% 29.85 in 6.0 mi Calm Calm - N/A   Clear
1:51 AM 14.0 °F - 12.0 °F 92% 29.85 in 10.0 mi Calm Calm - N/A   Clear
2:51 AM 12.9 °F - 10.9 °F 92% 29.84 in 10.0 mi Calm Calm - N/A   Clear
3:51 AM 10.9 °F - 9.0 °F 92% 29.84 in 10.0 mi Calm Calm - N/A   Clear
4:51 AM 10.0 °F - 7.0 °F 87% 29.83 in 10.0 mi Calm Calm - N/A   Clear
5:51 AM 9.0 °F - 6.1 °F 88% 29.81 in 10.0 mi Calm Calm - N/A   Clear
6:51 AM 7.0 °F - 5.0 °F 92% 29.80 in 10.0 mi Calm Calm - N/A   Clear
7:29 AM 7.0 °F - 3.9 °F 87% 29.70 in 10.0 mi Calm Calm - N/A   Partly Cloudy
7:51 AM 8.1 °F - 5.0 °F 87% 29.78 in 10.0 mi Calm Calm - N/A   Clear
8:51 AM 15.1 °F - 12.9 °F 91% 29.76 in 10.0 mi Calm Calm - N/A   Clear
9:51 AM 23.0 °F - 21.0 °F 92% 29.77 in 10.0 mi Calm Calm - N/A   Clear
10:51 AM 28.9 °F - 23.0 °F 78% 29.76 in 10.0 mi Calm Calm - N/A   Clear
11:51 AM 33.1 °F 30.0 °F 19.0 °F 56% 29.72 in 10.0 mi SW 3.5 mph - N/A   Clear
12:51 PM 34.0 °F 31.0 °F 18.0 °F 52% 29.69 in 10.0 mi North 3.5 mph - N/A   Mostly Cloudy
1:51 PM 34.0 °F 31.0 °F 17.1 °F 50% 29.67 in 10.0 mi Variable 3.5 mph - N/A   Mostly Cloudy
2:51 PM 34.0 °F 31.0 °F 14.0 °F 44% 29.67 in 10.0 mi NW 3.5 mph - N/A   Mostly Cloudy
3:51 PM 30.0 °F 22.4 °F 21.9 °F 72% 29.69 in 10.0 mi NNW 8.1 mph - N/A   Overcast
4:51 PM 28.9 °F 23.9 °F 23.0 °F 78% 29.71 in 10.0 mi Variable 4.6 mph - N/A   Overcast
5:51 PM 28.0 °F 22.8 °F 23.0 °F 81% 29.73 in 9.0 mi North 4.6 mph - N/A   Overcast
6:06 PM 28.0 °F - 23.0 °F 81% 29.66 in 1.8 mi Calm Calm - 0.00 in Snow Light Snow
6:38 PM 27.0 °F - 25.0 °F 92% 29.66 in 1.0 mi Calm Calm - 0.01 in Snow Light Snow
6:47 PM 26.6 °F 22.6 °F 24.8 °F 93% 29.66 in 1.8 mi WSW 3.5 mph - 0.01 in Snow Light Snow
6:48 PM 26.6 °F - 24.8 °F 93% 29.66 in 2.0 mi Calm Calm - 0.01 in Snow Light Snow
6:51 PM 27.0 °F 20.5 °F 25.0 °F 92% 29.75 in 2.5 mi WSW 5.8 mph - 0.01 in Snow Light Snow
7:05 PM 26.1 °F 20.5 °F 23.0 °F 88% 29.66 in 1.8 mi WSW 4.6 mph - 0.00 in Snow Light Snow
7:16 PM 26.1 °F 19.4 °F 23.0 °F 88% 29.66 in 2.0 mi Variable 5.8 mph - 0.00 in Snow Light Snow
7:33 PM 26.1 °F 18.4 °F 23.0 °F 88% 29.66 in 3.0 mi WSW 6.9 mph - 0.00 in Snow Light Snow
7:44 PM 26.1 °F 19.4 °F 23.0 °F 88% 29.66 in 2.5 mi Variable 5.8 mph - 0.00 in Snow Light Snow
7:51 PM 25.0 °F 17.1 °F 21.9 °F 88% 29.75 in 2.5 mi Variable 6.9 mph - 0.00 in Snow Light Snow
8:07 PM 25.0 °F 19.3 °F 21.9 °F 88% 29.66 in 1.8 mi West 4.6 mph - 0.00 in Snow Light Snow
8:17 PM 25.0 °F 19.3 °F 21.9 °F 88% 29.66 in 1.5 mi WSW 4.6 mph - 0.00 in Snow Light Snow
8:31 PM 25.0 °F 20.7 °F 21.9 °F 88% 29.66 in 1.2 mi WSW 3.5 mph - 0.00 in Snow Light Snow
8:51 PM 24.1 °F 16.0 °F 21.9 °F 91% 29.74 in 1.5 mi WSW 6.9 mph - 0.01 in Snow Light Snow
9:07 PM 24.1 °F 18.2 °F 21.9 °F 91% 29.66 in 1.8 mi WSW 4.6 mph - 0.00 in Snow Light Snow
9:14 PM 24.1 °F 16.0 °F 21.9 °F 91% 29.66 in 2.0 mi SW 6.9 mph - 0.00 in Snow Light Snow
9:51 PM 24.1 °F 17.0 °F 21.9 °F 91% 29.73 in 3.0 mi SW 5.8 mph - 0.00 in Snow Light Snow
10:07 PM 24.1 °F 17.0 °F 21.9 °F 91% 29.66 in 4.0 mi SW 5.8 mph - 0.00 in Snow Light Snow
10:51 PM 24.1 °F 15.2 °F 21.9 °F 91% 29.72 in 10.0 mi SW 8.1 mph - 0.00 in   Overcast
11:25 PM 24.1 °F 17.0 °F 21.9 °F 91% 29.64 in 2.5 mi SW 5.8 mph - 0.00 in Snow Light Snow
11:40 PM 24.1 °F 18.2 °F 21.0 °F 88% 29.64 in 3.0 mi SW 4.6 mph - 0.00 in Snow Light Snow
11:51 PM 24.1 °F 19.7 °F 21.9 °F 91% 29.69 in 2.5 mi SW 3.5 mph - 0.01 in Snow Light Snow